DECAYED

STARLINK-2126, 47726 (Decayed)

Orbit data source: Space-Track

STARLINK-2126, 47726 was a payload satellite owned by SpaceX/Seattle (US) in LEO that was launched on Thu, 04 Mar 2021 UTC via an FALCON 9 launch vehicle from the Air Force Eastern Test Range (AFETR). Payload-class satellites include a variety of spacecraft equipped with specific instruments for various scientific and technological missions. These include communications satellites like Starlink; space stations such as the ISS; scientific satellites like the Hubble; Earth observation satellites from companies like Planet Labs, Umbra, and HawkEye 360; GPS; miniature CubeSats for education and research; and military/defense satellites.

Not visible in the next 10 days
Identifier
47726, 2021-017E
Orbit
Decayed
Country
Flag of USUS
Related business
Manufacturer
SpaceX/Seattle
Mission
Decayed Commercial Communications
Bus & Motor
STARLINK, Unknown motor
Mass
260 kg wet, ~248 kg dry
Launch date (UTC)
2021-03-04 (5 years ago)
Launch vehicle
FALCON 9
Launch site
Air Force Eastern Test Range (AFETR)
Object type
Payload
Rocket body
Debris
Shape & HBR
Box + 1 Pan, 10.1 m
Radar Cross Section
13.562 m², Large (>1 m²)

Expand to show TLE details & history
Last TLE update: 11 months ago

TLE from 11 months ago
0 STARLINK-2126
1 47726U 21017E   24366.22517091  .17538066  12471-4  45749-3 0  9992
2 47726  53.0234 266.1655 0003881 220.9675 280.2887 16.45695708213054
Epoch: 2024-12-31T05:24Z
TLE epoch observation values (Epoch: 2024-12-31T05:24:14.766Z)
Latitude
30.12772°
Longitude
-120.77997°
Altitude
151.951 km
Speed
7.82 km/s
True Right ascension
04h 01m 40s
True Declination
29° 57' 53"
Sunlit
Object was in full shadow at epoch
Visualization orbit readout
Latitude
Unknown
Longitude
Unknown
Altitude
Unknown
Speed
Unknown
Apparent Right ascension
Unknown
Apparent Declination
Unknown
Sunlit
N/A
Visualization observer readout
Local Sidereal Time
23:18:50
Azimuth
Unknown
Elevation
Unknown
Doppler factor
Unknown
Orbital elements
Apogee altitude
153.521 km
Perigee altitude
148.453 km
Semi-major axis
6,529.124 km
Eccentricity
0.00039
Inclination
53.0234°
RAAN
266.1655°
Arg. of periapsis
220.9675°
True anomaly
280.24494°
Mean anomaly
280.2887°
Eccentric anomaly
280.26682°
Mean motion
4.11397 °/min
Orbital period
87.51 mins
BSTAR
0.00045749
Loading maneuver chart data...
Computing Atmospheric mass density...
Loading historical data...
Loading historical data...
Loading historical data...
Loading historical data...
Loading historical data...
Loading historical data...
Loading historical data...

Documentation

Showing up to 5 results
|